Find Starlink 1273

NORAD ID: 45367 Int'l Des: 2020-019 Owner: SPXS Country: US Constellation: starlink operational
LEOCIRCULAR

当前视图

正在加载3D地球...

About Starlink 1273

Starlink 1273 (NORAD 45367) is a starlink constellation satellite (v1.0) launched Mar 18, 2020 by SPXS of US. It operates in LEO, CIRCULAR orbit with a mass of 260.00 kg.

即将过境

Passes for default location (London). Set your location on the main map for personalized predictions.

高度历史

Loading altitude history...

两行轨道根数

1 45367U 20019H 26263.56576094 .00039171 00000-0 33477-3 0 9996
2 45367 53.0379 288.4764 0002970 39.9200 320.2034 15.69107218360276
Epoch: Sep 20, 2026 • Age: 7 hours

当前状态

高度 380.9 km
远地点 / 近地点 N/A
速度 7.68 km/s
星下点 -51.94°S, 131.76°W
发射日期 Mar 18, 2020
运行时间 6.5 years
类型 internet

技术详情

分类 Payload
质量 260.00 kg
干质量 248.00 kg
长度 0.20 m
跨度 9.00 m
形状 ? Box + pan
制造商 SPXS
平台类型 Starlink
阶段状态 In Orbit
所有者/国家 SPXS/US

Most Searched